Вернуться в каталог

STARLINK-32142

АктивенСвязьVLEO
NORAD 60291·PAYLOAD·🇺🇸 United States

Запущен Jul 28, 2024 с Cape Canaveral Space Force Station

Loading…

Ближайшие Пролёты (ближайшие 24 часа)

TLE

СвежийSource: CelesTrak SupGP

Эпоха: Sep 14, 2026, 13:47 UTC

1 60291C 24132P   26257.57479167 -.00011665  00000+0 -34476-3 0  2572
2 60291  53.1562 253.0883 0001223  82.5949  60.9220 15.34385437    19

Отслеживайте STARLINK-32142 в реальном времени с AllMySat

Download on the App Store